Hourly Data Report for August 24, 2020

LYTTON RCS
BRITISH COLUMBIA
Current Station Operator: ECCC - MSC

50°13'28.000" N
121°34'55.000" W
225.00 m
1114746
71765
VLY

Download Data

Hourly Data (August 2020)
Hourly Data Report for August 24, 2020
TIME Temp Definition
°C
Dew Point Definition
°C
Rel Hum Definition
%
Wind Dir Definition
10's deg

Wind Spd Definition
km/h
Visibility Definition
km
Stn Press Definition
kPa
Hmdx Definition


Wind Chill Definition


Weather Definition


00:00 19.6 10.6 56 18 16   98.51     LegendNANA
01:00 19.0 11.1 60 17 17   98.50     LegendNANA
02:00 18.4 11.3 63 17 19   98.49     LegendNANA
03:00 18.0 11.3 65 18 13   98.52     LegendNANA
04:00 17.6 11.3 66 17 18   98.53     LegendNANA
05:00 17.2 11.4 68 18 23   98.59     LegendNANA
06:00 16.2 12.1 76 18 13   98.65     LegendNANA
07:00 15.4 11.9 80 14 17   98.73     LegendNANA
08:00 15.5 12.2 81 15 15   98.76     LegendNANA
09:00 16.5 12.2 76 17 17   98.80     LegendNANA
10:00 18.7 11.7 64 18 14   98.79     LegendNANA
11:00 20.4 10.2 52 18 15   98.75     LegendNANA
12:00 21.5 8.7 44 17 13   98.73     LegendNANA
13:00 22.1 9.0 43 18 15   98.70     LegendNANA
14:00 22.3 8.5 41 18 23   98.67     LegendNANA
15:00 22.5 8.9 42 19 18   98.63     LegendNANA
16:00 23.7 8.2 37 19 16   98.57     LegendNANA
17:00 23.8 8.8 38 18 17   98.53 25   LegendNANA
18:00 21.3 8.8 45 18 19   98.53     LegendNANA
19:00 20.6 9.4 49 17 18   98.55     LegendNANA
20:00 19.4 9.7 54 16 10   98.62     LegendNANA
21:00 17.0 10.3 65 17 7   98.66     LegendNANA
22:00 16.1 10.4 69 17 9   98.72     LegendNANA
23:00 14.9 10.8 77 17 11   98.74     LegendNANA

Notes on Data Quality.

Legend

  • E = Estimated
  • M = Missing
  • NA = Not Available*
  • [empty] = Indicates an unobserved value
Date modified: